Simultaneous Nadir Overpasses (SNOs) Predictions

Prediction of SNOs between LANDSAT-8 and METOP-A Satellite Orbit:

Table of predicted SNOs for the next 14.0 days since TLE Epoch: 9/19/2014
Index Date (LANDSAT-8) Time (LANDSAT-8) Lat,Lon (LANDSAT-8) SZA (LANDSAT-8 ) Date (METOP-A) Time (METOP-A) Lat,Lon (METOP-A) SZA (METOP-A ) Distance(km) Time Diff (sec)
1 09/20/2014 16:41:36 -81.09, 149.05 97.68 09/20/2014 16:40:29 -81.09, 149.11 97.70 1.06 67
2 09/20/2014 17:31:01 81.12, -42.86 82.41 09/20/2014 17:31:08 81.12, -42.79 82.42 1.22 7
3 09/23/2014 12:15:49 -81.09,-144.61 96.58 09/23/2014 12:14:51 -81.08,-144.68 96.61 1.29 58
4 09/23/2014 13:05:14 81.11, 23.46 83.51 09/23/2014 13:05:30 81.11, 23.41 83.51 0.91 16
5 09/26/2014 07:50:02 -81.09, -78.05 95.44 09/26/2014 07:49:13 -81.09, -78.14 95.48 1.65 49
6 09/26/2014 08:39:27 81.12, 90.00 84.64 09/26/2014 08:39:52 81.12, 89.95 84.64 1.08 25
7 09/29/2014 03:24:15 -81.09, -11.63 94.33 09/29/2014 03:23:35 -81.09, -11.64 94.35 0.26 40
8 09/29/2014 04:13:40 81.12, 156.40 85.74 09/29/2014 04:14:14 81.12, 156.43 85.77 0.71 34
9 10/01/2014 22:58:26 -81.10, 54.99 93.20 10/01/2014 22:57:56 -81.09, 54.82 93.23 3.16 30




NCC Satellite Simultaneous Nadir Overpasses (SNOs) Prediction Service
